Weather History for Billings, MT

Change the Weather History Date:

Friday, May 3, 2013

  Actual Average Record
Temperature  
Mean Temperature 56 °F 52 °F  
Max Temperature 65 °F 64 °F 85 °F (1939)
Min Temperature 46 °F 40 °F 16 °F (1954)
Degree Days  
Heating Degree Days 9 14  
Month to date heating degree days 52 42  
Since 1 July heating degree days 6144 6419  
Cooling Degree Days 0 0  
Month to date cooling degree days 0 0  
Year to date cooling degree days 0 1  
Growing Degree Days 5 (Base 50)    
Moisture  
Dew Point 26 °F    
Average Humidity 53    
Maximum Humidity 86    
Minimum Humidity 20    
Precipitation  
Precipitation 0.02 in 0.06 in 0.61 in (1960)
Month to date precipitation 0.02 0.19  
Year to date precipitation 2.18 3.87  
Snow  
Snow 0.00 in 0.10 in 5.50 in (1956)
Month to date snowfall T 0.4  
Since 1 July snowfall 40.4 53.4  
Snow Depth 0.00 in    
Sea Level Pressure  
Sea Level Pressure 30.15 in    
Wind  
Wind Speed 13 mph (WNW)    
Max Wind Speed 22 mph    
Max Gust Speed 27 mph    
Visibility 10 miles    
Events Rain    
T = Trace of Precipitation, MM = Missing Value Source: NWS Daily Summary

Daily Weather History Graph

Daily Weather History Graph

Search for Another Location

Airport:

Trip Planner

Search our weather history database for the weather conditions in past years. The results will help you decide how hot, cold, wet, or windy it might be!

Date:

Astronomy

May. 03, 2013 Rise Set
Actual Time 5:58 AM MDT 8:24 PM MDT
Civil Twilight 5:24 AM MDT 8:58 PM MDT
Nautical Twilight 4:43 AM MDT 9:39 PM MDT
Astronomical Twilight 3:56 AM MDT 10:27 PM MDT
Moon 2:44 AM MDT (5/3) 2:04 PM MDT (5/3)
Length of Visible Light 15h 33m
Length of Day
14h 26m
Last Quarter, 36% of the Moon is Illuminated
May 3
Last Quarter
May 9
New
May 17
First Quarter
May 24
Full
May 31
Last Quarter

Hourly Weather History & Observations

Time (MDT) Temp. Windchill Dew Point Humidity Pressure Visibility Wind Dir Wind Speed Gust Speed Precip Events Conditions
12:53 AM 50.0 °F - 17.1 °F 27% 30.22 in 10.0 mi WSW 16.1 mph - N/A   Clear
1:53 AM 48.2 °F - 17.6 °F 30% 30.21 in 10.0 mi WSW 19.6 mph - N/A   Clear
2:53 AM 48.9 °F - 17.1 °F 28% 30.18 in 10.0 mi WSW 18.4 mph - N/A   Clear
3:53 AM 48.0 °F - 18.0 °F 30% 30.16 in 10.0 mi WSW 18.4 mph - N/A   Clear
4:53 AM 48.0 °F - 18.0 °F 30% 30.16 in 10.0 mi SW 16.1 mph - N/A   Clear
5:53 AM 48.0 °F - 18.0 °F 30% 30.16 in 10.0 mi SW 17.3 mph - N/A   Partly Cloudy
6:53 AM 48.0 °F - 19.0 °F 32% 30.16 in 10.0 mi WSW 17.3 mph - N/A   Scattered Clouds
7:53 AM 50.0 °F - 19.9 °F 31% 30.16 in 10.0 mi SW 15.0 mph - N/A   Mostly Cloudy
8:53 AM 54.0 °F - 21.9 °F 29% 30.15 in 10.0 mi SW 16.1 mph - N/A   Mostly Cloudy
9:53 AM 59.0 °F - 21.9 °F 24% 30.14 in 10.0 mi WSW 12.7 mph - N/A   Mostly Cloudy
10:53 AM 62.1 °F - 21.0 °F 21% 30.12 in 10.0 mi West 15.0 mph 21.9 mph N/A   Mostly Cloudy
11:53 AM 63.0 °F - 23.0 °F 22% 30.11 in 10.0 mi WNW 11.5 mph - N/A   Mostly Cloudy
12:53 PM 63.0 °F - 24.1 °F 23% 30.10 in 10.0 mi NNW 11.5 mph 19.6 mph N/A   Mostly Cloudy
1:53 PM 64.0 °F - 26.1 °F 24% 30.09 in 10.0 mi Variable 5.8 mph - N/A   Mostly Cloudy
2:53 PM 64.0 °F - 26.1 °F 24% 30.09 in 10.0 mi NW 12.7 mph - N/A   Overcast
3:53 PM 62.1 °F - 27.0 °F 26% 30.09 in 10.0 mi ENE 11.5 mph - N/A   Overcast
4:53 PM 61.0 °F - 28.0 °F 29% 30.10 in 10.0 mi WNW 11.5 mph - N/A   Overcast
5:53 PM 57.9 °F - 30.9 °F 36% 30.12 in 10.0 mi NE 12.7 mph - N/A   Overcast
6:53 PM 57.0 °F - 32.0 °F 39% 30.14 in 10.0 mi NNE 11.5 mph - N/A   Overcast
7:53 PM 53.1 °F - 37.0 °F 55% 30.17 in 10.0 mi NNE 12.7 mph - N/A   Overcast
8:53 PM 51.1 °F - 39.0 °F 63% 30.17 in 10.0 mi North 12.7 mph - N/A   Overcast
9:53 PM 48.0 °F - 42.1 °F 80% 30.19 in 10.0 mi North 12.7 mph - 0.00 in Rain Light Rain
10:53 PM 46.0 °F 40.6 °F 42.1 °F 86% 30.19 in 10.0 mi North 11.5 mph - 0.01 in Rain Light Rain
11:53 PM 46.0 °F 41.9 °F 42.1 °F 86% 30.19 in 10.0 mi North 8.1 mph - 0.01 in Rain Light Rain